AirNav   Air Wisconsin pilot careers
 
 1140 users online  

0NJ1 Berkeley Township Police Heliport
Bayville, New Jersey, USA

GOING TO BAYVILLE?


FAA INFORMATION EFFECTIVE 21 JUNE 2018

Location

FAA Identifier: 0NJ1
Lat/Long: 39-54-26.4250N / 074-14-05.5120W
39-54.440417N / 074-14.091867W
39.9073403 / -74.2348644
(estimated)
Elevation: 54 ft. / 16 m (estimated)
Variation: 12W (1990)
Time zone: UTC -4 (UTC -5 during Standard Time)
Zip code: 08721

Heliport Operations

Heliport use: Private use. Permission required prior to landing
Activation date: 04/1993
Control tower: no
ARTCC: NEW YORK CENTER
FSS: MILLVILLE FLIGHT SERVICE STATION
Attendance: DAWN-DUSK
Wind indicator: yes
Segmented circle: no

Heliport Communications

WX AWOS-3PT at MJX (3 nm W): 119.875 (732-797-2542)
WX AWOS-AV at N12 (10 nm N): 122.8 (732-363-6471)
WX AWOS-3PT at BLM (18 nm N): 121.625 (732-938-3330)

Nearby radio navigation aids

VOR radial/distance  VOR name  Freq  Var
CYNr069/10.5COYLE VORTAC113.4010W
GXUr122/17.7MC GUIRE VORTAC110.6012W
RBVr156/21.4ROBBINSVILLE VORTAC113.8010W
COLr199/24.5COLTS NECK VOR/DME115.4011W
ACYr040/31.3ATLANTIC CITY VORTAC108.6010W
PNEr116/(37.1)NORTH PHILADELPHIA VOR112.0010W
ARDr134/37.2YARDLEY VOR/DME108.2010W

 
NDB name  Hdg/Dist  Freq  Var  ID
LAKEHURST162/9.539611WNEL -. . .-..

Heliport Services

Runway Information

Helipad H1

Dimensions: 200 x 200 ft. / 61 x 61 m
Surface: asphalt, in good condition
Traffic pattern: leftleft

Heliport Ownership and Management from official FAA records

Ownership: Publicly-owned
Owner: TOWNSHIP OF BERKELEY
PO BOX B, PINEWALD-KESWICK RD
BAYVILLE, NJ 08721
Phone 908-341-6600
Manager: KARIN T. MICHELE, CHIEF OF POLICE
PO BOX B, PINEWALD-KESWICK RD
BAYVILLE, NJ 08721
Phone 908-341-6600
EXT 128

Additional Remarks

A52-H1 200 FT WIRES 1500 FT W & TREES SE & SSW.

Instrument Procedures

There are no published instrument procedures at 0NJ1.

Some nearby airports with instrument procedures:

KMJX - Ocean County Airport (3 nm W)
KNEL - Lakehurst Maxfield Field Airport (9 nm NW)
N12 - Lakewood Airport (10 nm N)
31E - Eagles Nest Airport (15 nm S)
KBLM - Monmouth Executive Airport (18 nm N)
KWRI - McGuire Field (Joint Base Mc Guire Dix Lakehurst) Airport (18 nm W)
 
Loc | Ops | Rwys | IFR | FBO | Links
Com | Nav | Svcs | Stats | Notes


 
Area around 0NJ1 (Berkeley Township Police Heliport)
 
Road maps at: MapQuest Bing Google
 
Aerial photo
No photo
 
Sectional chart

 
Airport distance calculator
Flying to Berkeley Township Police Heliport? Find the distance to fly.

From to 0NJ1

Sunrise and sunset
Times for 17-Jul-2018
 Local
(UTC-4)
 Zulu
(UTC)
Morning civil twilight05:1209:12
Sunrise05:4309:43
Sunset20:2300:23
Evening civil twilight20:5400:54

Current date and time
Zulu (UTC)  18-Jul-2018 00:03:04
Local (UTC-4)  17-Jul-2018 20:03:04
 
METAR
KMJX 
3nm NW 
AWOS-3 119.875 732-244-4450
172356Z AUTO 14003KT 10SM BKN003 BKN031 OVC038 22/21 A2985 RMK AO2 RAE52 SLP113 P0008 60198 T02170211 10356 20211 58004
KNEL 
8nm NW 
172331Z 10SM BKN004 BKN035 OVC043 A2984 RMK AO2 PNO
KBLM 
16nm N 
AWOS-3 121.625 732-938-3330
172356Z AUTO 12006KT 10SM OVC004 21/21 A2985 RMK AO2 RAE07 SLP110 P0000 6//// T02110206 10300 20211 50003
KWRI 
17nm W 
172356Z AUTO 13005KT 10SM FEW003 BKN022 BKN120 22/22 A2981 RMK AO2 CIG 022V120 CIG 021 RWY06 CIG 021 RWY18 SLP093 60064 T02210216 10355 20221 50010 $
TAF
KWRI 
17nm W 
171839Z 1718/1824 22012KT 9999 FEW020 SCT250 QNH2972INS TEMPO 1718/1719 23015G25KT BECMG 1718/1719 21012KT 8000 -SHRA BKN020 QNH2970INS TEMPO 1719/1801 24015G25KT 3200 TSRA BR FEW005 BKN015CB OVC020 BECMG 1802/1803 34006KT 6000 BR BKN010 OVC030 QNH2975INS BECMG 1807/1808 34009KT 9999 NSW FEW050 QNH2978INS TX36/1720Z TN21/1809Z
NOTAMs
Click for the latest NOTAMs
NOTAMs are issued by the DoD/FAA and will open in a separate window not controlled by AirNav.

 

 
 

Would you like to see your business listed on this page?

 If your business provides an interesting product or service to pilots, flight crews, aircraft, or users of the Berkeley Township Police Heliport, you should consider listing it here.  To start the listing process, click on the button below
 
Add a business
 

Other Pages about Berkeley Township Police Heliport

Update a link
 
Copyright © AirNav, LLC. All rights reserved. Privacy Policy  Contact